CRL781 HKMO-VRMM

Flight info

Callsign CRL781
Flight time N/A
Altitude 31000
Route ESRIN2A MOBAT UL434 XABON/N0516F300 UL434 LOTER/N0511F320 UL434 PRA UM307 OTKIR/N0509F330 G465 ESKOL ESKOL2B
Aircraft B742/H-VGDW/C

Departure

Time 2026-05-05 15:19
Airport Moi International Airport (HKMO)

Arrival

Time N/A
Airport Velana International Airport (VRMM)
Time Latitude Longitude Altitude Speed Heading
2026-05-05 15:03 -4.03061 39.60268 207 ft 0 kts 121°
2026-05-05 15:04 -4.03055 39.60257 207 ft 2 kts 111°
2026-05-05 15:04 -4.03051 39.60242 207 ft 2 kts 97°
2026-05-05 15:05 -4.03053 39.60213 207 ft 2 kts 73°
2026-05-05 15:05 -4.03058 39.60199 207 ft 2 kts 62°
2026-05-05 15:05 -4.03066 39.60187 207 ft 2 kts 50°
2026-05-05 15:06 -4.03077 39.60176 207 ft 2 kts 38°
2026-05-05 15:06 -4.03090 39.60168 207 ft 2 kts 27°
2026-05-05 15:06 -4.03103 39.60161 207 ft 2 kts 27°
2026-05-05 15:06 -4.03116 39.60154 207 ft 2 kts 29°
2026-05-05 15:07 -4.03124 39.60150 207 ft 0 kts 28°
2026-05-05 15:11 -4.03114 39.60155 207 ft 2 kts 16°
2026-05-05 15:11 -4.03083 39.60150 207 ft 6 kts 331°
2026-05-05 15:12 -4.03050 39.60107 207 ft 9 kts 300°
2026-05-05 15:12 -4.03013 39.60045 207 ft 11 kts 300°
2026-05-05 15:12 -4.02975 39.59975 205 ft 10 kts 298°
2026-05-05 15:12 -4.02953 39.59941 204 ft 3 kts 331°
2026-05-05 15:13 -4.02917 39.59946 203 ft 6 kts 20°
2026-05-05 15:13 -4.02869 39.59971 203 ft 8 kts 30°
2026-05-05 15:13 -4.02811 39.60004 203 ft 11 kts 29°
2026-05-05 15:13 -4.02730 39.60048 201 ft 15 kts 29°
2026-05-05 15:14 -4.02629 39.60104 200 ft 17 kts 30°
2026-05-05 15:14 -4.02513 39.60171 198 ft 20 kts 29°
2026-05-05 15:14 -4.02380 39.60245 198 ft 22 kts 30°
2026-05-05 15:14 -4.02239 39.60323 198 ft 23 kts 28°
2026-05-05 15:15 -4.02095 39.60401 200 ft 23 kts 30°
2026-05-05 15:15 -4.01954 39.60480 203 ft 22 kts 30°
2026-05-05 15:15 -4.01817 39.60558 205 ft 22 kts 29°
2026-05-05 15:15 -4.01680 39.60635 206 ft 22 kts 30°
2026-05-05 15:16 -4.01549 39.60708 210 ft 13 kts 28°
2026-05-05 15:16 -4.01474 39.60738 210 ft 10 kts
2026-05-05 15:16 -4.01422 39.60733 211 ft 0 kts 341°
2026-05-05 15:17 -4.01416 39.60731 211 ft 2 kts 341°
2026-05-05 15:17 -4.01379 39.60715 212 ft 9 kts 328°
2026-05-05 15:17 -4.01332 39.60666 213 ft 8 kts 294°
2026-05-05 15:18 -4.01372 39.60606 211 ft 13 kts 208°
2026-05-05 15:18 -4.01390 39.60597 211 ft 1 kts 208°
2026-05-05 15:18 -4.01510 39.60532 207 ft 47 kts 208°
2026-05-05 15:18 -4.01975 39.60269 193 ft 103 kts 209°
2026-05-05 15:19 -4.02747 39.59837 195 ft 149 kts 208°
2026-05-05 15:19 -4.03739 39.59272 363 ft 170 kts 207°
2026-05-05 15:19 -4.04794 39.58678 741 ft 176 kts 205°
2026-05-05 15:19 -4.05880 39.58093 1200 ft 179 kts 205°
2026-05-05 15:20 -4.07050 39.57528 1419 ft 197 kts 192°
2026-05-05 15:20 -4.08476 39.57572 1498 ft 213 kts 157°
2026-05-05 15:20 -4.09674 39.58481 1649 ft 223 kts 124°
2026-05-05 15:20 -4.10179 39.59950 1910 ft 230 kts 92°
2026-05-05 15:21 -4.09799 39.61534 2107 ft 245 kts 61°
2026-05-05 15:21 -4.08600 39.62783 2356 ft 257 kts 33°
2026-05-05 15:21 -4.07062 39.63719 2723 ft 257 kts 42°
2026-05-05 15:21 -4.05816 39.65017 2921 ft 262 kts 57°
2026-05-05 15:22 -4.04777 39.66539 3156 ft 269 kts 61°
2026-05-05 15:22 -4.03795 39.68136 3640 ft 266 kts 62°
2026-05-05 15:22 -4.02835 39.69729 4093 ft 265 kts 62°
2026-05-05 15:22 -4.01858 39.71307 4429 ft 269 kts 61°
2026-05-05 15:23 -4.00864 39.72913 4846 ft 268 kts 61°
2026-05-05 15:23 -3.99893 39.74475 5334 ft 265 kts 60°
2026-05-05 15:23 -3.98909 39.76058 5649 ft 270 kts 60°
2026-05-05 15:23 -3.97896 39.77685 5868 ft 279 kts 60°
2026-05-05 15:24 -3.96865 39.79337 6264 ft 279 kts 60°
2026-05-05 15:24 -3.95863 39.80965 6765 ft 276 kts 60°
2026-05-05 15:24 -3.94977 39.82688 6973 ft 281 kts 75°
2026-05-05 15:24 -3.94770 39.84660 7164 ft 286 kts 95°
2026-05-05 15:25 -3.94961 39.86632 7620 ft 285 kts 95°
2026-05-05 15:25 -3.95117 39.88616 8006 ft 286 kts 94°
2026-05-05 15:25 -3.95224 39.90609 8385 ft 288 kts 92°
2026-05-05 15:25 -3.95309 39.92616 8758 ft 290 kts 92°
2026-05-05 15:26 -3.95386 39.94634 9114 ft 292 kts 91°
2026-05-05 15:26 -3.95461 39.96670 9500 ft 293 kts 91°
2026-05-05 15:26 -3.95536 39.98727 9848 ft 296 kts 91°
2026-05-05 15:26 -3.95611 40.00789 10048 ft 304 kts 91°
2026-05-05 15:27 -3.95690 40.02971 10147 ft 317 kts 91°
2026-05-05 15:27 -3.95771 40.05203 10242 ft 330 kts 91°
2026-05-05 15:27 -3.95856 40.07547 10341 ft 343 kts 91°
2026-05-05 15:27 -3.95945 40.09983 10436 ft 355 kts 91°
2026-05-05 15:28 -3.96037 40.12516 10531 ft 368 kts 91°
2026-05-05 15:28 -3.96132 40.15128 10629 ft 381 kts 91°
2026-05-05 15:28 -3.96230 40.17799 10992 ft 384 kts 91°
2026-05-05 15:28 -3.96326 40.20472 11477 ft 385 kts 91°
2026-05-05 15:29 -3.96424 40.23161 11888 ft 387 kts 91°
2026-05-05 15:29 -3.96522 40.25872 12276 ft 390 kts 90°
2026-05-05 15:29 -3.96620 40.28577 12673 ft 392 kts 90°
2026-05-05 15:29 -3.96719 40.31318 13029 ft 396 kts 90°
2026-05-05 15:30 -3.96818 40.34090 13398 ft 399 kts 90°
2026-05-05 15:30 -3.96918 40.36882 13784 ft 401 kts 90°
2026-05-05 15:30 -3.97018 40.39659 14167 ft 404 kts 90°
2026-05-05 15:30 -3.97118 40.42462 14569 ft 405 kts 90°
2026-05-05 15:31 -3.97221 40.45322 14966 ft 407 kts 90°
2026-05-05 15:31 -3.97322 40.48147 15362 ft 409 kts 91°
2026-05-05 15:31 -3.97425 40.51005 15758 ft 411 kts 91°
2026-05-05 15:31 -3.97528 40.53881 16157 ft 413 kts 91°
2026-05-05 15:32 -3.97630 40.56730 16531 ft 414 kts 91°
2026-05-05 15:32 -3.97733 40.59627 16925 ft 416 kts 91°
2026-05-05 15:32 -3.97837 40.62526 17288 ft 418 kts 91°
2026-05-05 15:32 -3.97936 40.65448 17629 ft 421 kts 90°
2026-05-05 15:33 -3.98022 40.68374 17984 ft 423 kts 90°
2026-05-05 15:33 -3.98107 40.71344 18337 ft 425 kts 90°
2026-05-05 15:33 -3.98193 40.74317 18687 ft 427 kts 91°
2026-05-05 15:33 -3.98279 40.77274 19025 ft 430 kts 91°
2026-05-05 15:34 -3.98370 40.80313 19373 ft 432 kts 91°
2026-05-05 15:34 -3.98459 40.83315 19696 ft 434 kts 91°
2026-05-05 15:34 -3.98549 40.86329 20042 ft 436 kts 90°
2026-05-05 15:34 -3.98641 40.89383 20406 ft 437 kts 91°
2026-05-05 15:35 -3.98731 40.92421 20726 ft 439 kts 91°
2026-05-05 15:35 -3.98822 40.95484 21007 ft 442 kts 91°
2026-05-05 15:35 -3.98913 40.98534 21321 ft 443 kts 91°
2026-05-05 15:35 -3.99005 41.01631 21645 ft 445 kts 91°
2026-05-05 15:36 -3.99097 41.04716 21939 ft 446 kts 91°
2026-05-05 15:36 -3.99190 41.07856 22214 ft 449 kts 91°
2026-05-05 15:36 -3.99282 41.10972 22496 ft 450 kts 91°
2026-05-05 15:36 -3.99331 41.14119 22742 ft 452 kts 90°
2026-05-05 15:37 -3.99403 41.17279 22991 ft 455 kts 91°
2026-05-05 15:37 -3.99518 41.20411 23277 ft 456 kts 91°
2026-05-05 15:37 -3.99638 41.23601 23533 ft 458 kts 91°
2026-05-05 15:37 -3.99753 41.26782 23791 ft 459 kts 91°
2026-05-05 15:38 -3.99862 41.29986 24021 ft 461 kts 91°
2026-05-05 15:38 -3.99967 41.33197 24285 ft 463 kts 91°
2026-05-05 15:38 -4.00070 41.36423 24514 ft 464 kts 91°
2026-05-05 15:38 -4.00171 41.39643 24744 ft 466 kts 91°
2026-05-05 15:39 -4.00271 41.42877 24959 ft 467 kts 91°
2026-05-05 15:39 -4.00372 41.46148 25163 ft 469 kts 91°
2026-05-05 15:39 -4.00473 41.49401 25393 ft 470 kts 91°
2026-05-05 15:39 -4.00574 41.52679 25588 ft 472 kts 91°
2026-05-05 15:40 -4.00676 41.55997 25798 ft 473 kts 91°
2026-05-05 15:40 -4.00776 41.59268 25988 ft 475 kts 91°
2026-05-05 15:40 -4.00878 41.62598 26206 ft 476 kts 91°
2026-05-05 15:40 -4.00979 41.65897 26414 ft 477 kts 91°
2026-05-05 15:41 -4.01077 41.69192 26579 ft 479 kts 91°
2026-05-05 15:41 -4.01176 41.72559 26773 ft 480 kts 91°
2026-05-05 15:41 -4.01275 41.75883 26938 ft 481 kts 91°
2026-05-05 15:41 -4.01375 41.79211 27108 ft 483 kts 91°
2026-05-05 15:42 -4.01477 41.82600 27288 ft 484 kts 91°
2026-05-05 15:42 -4.01578 41.85945 27461 ft 485 kts 91°
2026-05-05 15:42 -4.01681 41.89340 27600 ft 487 kts 91°
2026-05-05 15:42 -4.01782 41.92699 27762 ft 488 kts 91°
2026-05-05 15:43 -4.01886 41.96130 27934 ft 489 kts 91°
2026-05-05 15:43 -4.01988 41.99502 28099 ft 490 kts 91°
2026-05-05 15:43 -4.02091 42.02906 28246 ft 491 kts 91°
2026-05-05 15:43 -4.02193 42.06315 28363 ft 492 kts 91°
2026-05-05 15:44 -4.02297 42.09752 28505 ft 493 kts 91°
2026-05-05 15:44 -4.02400 42.13176 28646 ft 494 kts 90°
2026-05-05 15:44 -4.02503 42.16641 28801 ft 495 kts 91°
2026-05-05 15:44 -4.02605 42.20043 28938 ft 496 kts 91°
2026-05-05 15:45 -4.02708 42.23484 29061 ft 497 kts 91°
2026-05-05 15:45 -4.02812 42.26975 29274 ft 496 kts 91°
2026-05-05 15:45 -4.02915 42.30423 29499 ft 494 kts 91°
2026-05-05 15:45 -4.03017 42.33854 29698 ft 493 kts 91°
2026-05-05 15:46 -4.03118 42.37272 29852 ft 493 kts 91°
2026-05-05 15:46 -4.03220 42.40698 30030 ft 493 kts 91°
2026-05-05 15:46 -4.03322 42.44138 30226 ft 492 kts 91°
2026-05-05 15:46 -4.03422 42.47528 30405 ft 491 kts 90°
2026-05-05 15:47 -4.03524 42.50970 30594 ft 490 kts 90°
2026-05-05 15:47 -4.03591 42.53242 30696 ft 490 kts 90°
2026-05-05 15:47 -4.03724 42.57773 30869 ft 490 kts 90°
2026-05-05 15:48 -4.03925 42.64590 30903 ft 495 kts 90°
2026-05-05 15:48 -4.04123 42.71513 30905 ft 499 kts 90°
2026-05-05 15:49 -4.04322 42.78498 30903 ft 503 kts 90°
2026-05-05 15:49 -4.04525 42.85506 30903 ft 504 kts 90°
2026-05-05 15:50 -4.04796 42.92511 30903 ft 502 kts 91°
2026-05-05 15:50 -4.04994 42.99484 30903 ft 502 kts 90°
2026-05-05 15:51 -4.05166 43.06431 30904 ft 503 kts 90°
2026-05-05 15:51 -4.05364 43.13445 30904 ft 505 kts 90°
2026-05-05 15:52 -4.05573 43.20487 30903 ft 504 kts 90°
2026-05-05 15:52 -4.05782 43.27465 30902 ft 502 kts 90°
2026-05-05 15:53 -4.05991 43.34471 30903 ft 503 kts 90°
2026-05-05 15:53 -4.06198 43.41437 30903 ft 503 kts 90°
2026-05-05 15:54 -4.06406 43.48475 30904 ft 503 kts 90°
2026-05-05 15:54 -4.06611 43.55419 30903 ft 502 kts 90°
2026-05-05 15:55 -4.06816 43.62402 30904 ft 503 kts 90°
2026-05-05 15:55 -4.07019 43.69388 30904 ft 504 kts 90°
2026-05-05 15:56 -4.07218 43.76394 30905 ft 503 kts 90°
2026-05-05 15:56 -4.07419 43.83382 30905 ft 503 kts 90°
2026-05-05 15:57 -4.07623 43.90394 30908 ft 503 kts 90°
2026-05-05 15:57 -4.07825 43.97373 30904 ft 504 kts 90°
2026-05-05 15:58 -4.07995 44.04397 30907 ft 503 kts 92°
2026-05-05 15:58 -4.08477 44.11402 30906 ft 504 kts 93°
2026-05-05 15:59 -4.08964 44.18348 30912 ft 504 kts 92°
2026-05-05 15:59 -4.09402 44.25383 30918 ft 505 kts 92°
2026-05-05 16:00 -4.09816 44.32365 30917 ft 506 kts 92°
2026-05-05 16:00 -4.10231 44.39420 30915 ft 506 kts 92°
2026-05-05 16:01 -4.10643 44.46440 30913 ft 505 kts 92°
2026-05-05 16:01 -4.11052 44.53410 30908 ft 504 kts 92°
2026-05-05 16:02 -4.11462 44.60395 30902 ft 505 kts 92°
2026-05-05 16:02 -4.11872 44.67408 30903 ft 506 kts 92°
2026-05-05 16:03 -4.12276 44.74420 30903 ft 506 kts 92°
2026-05-05 16:03 -4.12685 44.81479 30903 ft 505 kts 92°
2026-05-05 16:04 -4.13090 44.88441 30903 ft 506 kts 92°
2026-05-05 16:04 -4.13501 44.95503 30903 ft 506 kts 92°
2026-05-05 16:05 -4.13910 45.02532 30903 ft 506 kts 92°
2026-05-05 16:05 -4.14318 45.09565 30902 ft 506 kts 92°
2026-05-05 16:06 -4.14723 45.16552 30902 ft 507 kts 92°
2026-05-05 16:06 -4.15131 45.23605 30903 ft 508 kts 92°
2026-05-05 16:07 -4.15538 45.30654 30903 ft 508 kts 92°
2026-05-05 16:07 -4.15944 45.37683 30903 ft 506 kts 92°
2026-05-05 16:08 -4.16351 45.44761 30903 ft 506 kts 92°
2026-05-05 16:08 -4.16755 45.51787 30903 ft 507 kts 92°
2026-05-05 16:09 -4.17159 45.58815 30903 ft 508 kts 92°
2026-05-05 16:09 -4.17577 45.65902 30900 ft 507 kts 94°
2026-05-05 16:10 -4.17849 45.72922 30904 ft 507 kts 89°
2026-05-05 16:10 -4.17869 45.80016 30903 ft 509 kts 89°
2026-05-05 16:11 -4.17950 45.87047 30903 ft 507 kts 90°
2026-05-05 16:12 -4.18212 46.01114 30903 ft 507 kts 90°
2026-05-05 16:13 -4.18552 46.18861 30903 ft 508 kts 90°
2026-05-05 16:13 -4.18686 46.25905 30903 ft 507 kts 90°
2026-05-05 16:14 -4.18951 46.39991 30903 ft 507 kts 90°
2026-05-05 16:15 -4.19214 46.54113 30903 ft 508 kts 90°
2026-05-05 16:16 -4.19474 46.68301 30903 ft 508 kts 90°
2026-05-05 16:17 -4.19659 46.78885 30902 ft 508 kts 90°
2026-05-05 16:18 -4.19850 46.89469 30890 ft 508 kts 90°
2026-05-05 16:19 -4.20090 47.00057 30889 ft 508 kts 90°
2026-05-05 16:19 -4.20231 47.10693 30884 ft 508 kts 90°
2026-05-05 16:20 -4.20473 47.24814 30885 ft 508 kts 90°
2026-05-05 16:22 -4.20779 47.42467 30881 ft 508 kts 90°
2026-05-05 16:23 -4.21020 47.56561 30884 ft 508 kts 90°
2026-05-05 16:23 -4.21200 47.67192 30883 ft 508 kts 90°
2026-05-05 16:24 -4.21312 47.74223 30882 ft 508 kts 90°
2026-05-05 16:25 -4.21486 47.84859 30886 ft 508 kts 90°
2026-05-05 16:25 -4.21662 47.95495 30890 ft 509 kts 90°
2026-05-05 16:26 -4.21928 48.09653 30888 ft 509 kts 90°
2026-05-05 16:27 -4.22016 48.16705 30886 ft 508 kts 90°
2026-05-05 16:27 -4.22124 48.23783 30888 ft 507 kts 90°
2026-05-05 16:28 -4.22238 48.30835 30898 ft 509 kts 90°
2026-05-05 16:28 -4.22353 48.37926 30899 ft 510 kts 90°
2026-05-05 16:29 -4.22467 48.45039 30902 ft 509 kts 90°
2026-05-05 16:29 -4.22579 48.52080 30903 ft 509 kts 90°
2026-05-05 16:30 -4.22691 48.59206 30904 ft 509 kts 90°
2026-05-05 16:30 -4.22802 48.66257 30902 ft 508 kts 90°
2026-05-05 16:31 -4.22905 48.73305 30901 ft 508 kts 90°
2026-05-05 16:31 -4.23011 48.80384 30903 ft 508 kts 90°
2026-05-05 16:32 -4.23120 48.87472 30902 ft 509 kts 90°
2026-05-05 16:32 -4.23228 48.94552 30905 ft 510 kts 90°
2026-05-05 16:33 -4.23337 49.01629 30903 ft 508 kts 90°
2026-05-05 16:33 -4.23443 49.08654 30902 ft 507 kts 90°
2026-05-05 16:34 -4.23549 49.15724 30900 ft 507 kts 90°
2026-05-05 16:34 -4.23655 49.22794 30893 ft 507 kts 90°
2026-05-05 16:35 -4.23760 49.29843 30890 ft 508 kts 90°
2026-05-05 16:35 -4.23864 49.36900 30887 ft 508 kts 90°
2026-05-05 16:36 -4.23969 49.43986 30886 ft 507 kts 90°
2026-05-05 16:36 -4.24071 49.50995 30885 ft 507 kts 90°
2026-05-05 16:37 -4.24174 49.58089 30885 ft 507 kts 90°
2026-05-05 16:37 -4.24275 49.65120 30886 ft 506 kts 90°
2026-05-05 16:38 -4.24371 49.72150 30883 ft 506 kts 90°
2026-05-05 16:38 -4.24467 49.79216 30882 ft 506 kts 90°
2026-05-05 16:39 -4.24565 49.86266 30883 ft 507 kts 90°
2026-05-05 16:39 -4.24664 49.93304 30882 ft 507 kts 90°
2026-05-05 16:40 -4.24763 50.00335 30881 ft 505 kts 90°
2026-05-05 16:40 -4.24860 50.07356 30883 ft 505 kts 90°
2026-05-05 16:41 -4.24957 50.14397 30882 ft 505 kts 90°
2026-05-05 16:41 -4.25053 50.21423 30881 ft 505 kts 90°
2026-05-05 16:42 -4.25149 50.28447 30881 ft 504 kts 90°
2026-05-05 16:42 -4.25243 50.35460 30880 ft 504 kts 90°
2026-05-05 16:43 -4.25338 50.42498 30881 ft 503 kts 90°
2026-05-05 16:43 -4.25431 50.49491 30883 ft 503 kts 90°
2026-05-05 16:44 -4.25523 50.56457 30885 ft 503 kts 90°
2026-05-05 16:44 -4.25616 50.63485 30885 ft 502 kts 90°
2026-05-05 16:45 -4.25703 50.70441 30887 ft 502 kts 90°
2026-05-05 16:45 -4.25788 50.77451 30891 ft 502 kts 90°
2026-05-05 16:46 -4.25876 50.84399 30899 ft 501 kts 90°
2026-05-05 16:46 -4.25965 50.91383 30902 ft 501 kts 90°
2026-05-05 16:47 -4.26054 50.98349 30902 ft 501 kts 90°
2026-05-05 16:47 -4.26142 51.05310 30902 ft 501 kts 90°
2026-05-05 16:48 -4.26229 51.12290 30903 ft 501 kts 90°
2026-05-05 16:48 -4.26315 51.19221 30904 ft 501 kts 90°
2026-05-05 16:49 -4.26402 51.26224 30902 ft 501 kts 90°
2026-05-05 16:49 -4.26487 51.33161 30904 ft 500 kts 90°
2026-05-05 16:50 -4.26572 51.40155 30904 ft 500 kts 90°
2026-05-05 16:50 -4.26656 51.47092 30901 ft 501 kts 90°
2026-05-05 16:51 -4.26739 51.54050 30897 ft 501 kts 90°
2026-05-05 16:51 -4.26822 51.61026 30894 ft 500 kts 90°
2026-05-05 16:52 -4.26903 51.68006 30895 ft 500 kts 90°
2026-05-05 16:52 -4.26978 51.74921 30889 ft 500 kts 90°
2026-05-05 16:53 -4.27056 51.81888 30888 ft 500 kts 90°
2026-05-05 16:53 -4.27136 51.88874 30887 ft 501 kts 90°
2026-05-05 16:54 -4.27215 51.95821 30884 ft 501 kts 90°
2026-05-05 16:54 -4.27294 52.02806 30881 ft 500 kts 90°
2026-05-05 16:55 -4.27373 52.09755 30883 ft 499 kts 90°
2026-05-05 16:55 -4.27451 52.16719 30884 ft 499 kts 90°
2026-05-05 16:56 -4.27528 52.23666 30883 ft 499 kts 90°
2026-05-05 16:56 -4.27604 52.30635 30882 ft 500 kts 90°
2026-05-05 16:57 -4.27680 52.37608 30883 ft 499 kts 90°
2026-05-05 16:57 -4.27759 52.44621 30883 ft 499 kts 90°
2026-05-05 16:58 -4.27839 52.51555 30883 ft 499 kts 90°
2026-05-05 16:58 -4.27917 52.58505 30884 ft 499 kts 90°
2026-05-05 16:59 -4.27995 52.65476 30886 ft 499 kts 90°
2026-05-05 16:59 -4.28066 52.72422 30889 ft 499 kts 90°
2026-05-05 17:00 -4.28138 52.79366 30896 ft 498 kts 90°
2026-05-05 17:00 -4.28212 52.86259 30900 ft 498 kts 90°
2026-05-05 17:01 -4.28287 52.93217 30903 ft 499 kts 90°
2026-05-05 17:01 -4.28360 53.00059 30904 ft 499 kts 90°
2026-05-05 17:02 -4.28433 53.06964 30902 ft 498 kts 90°
2026-05-05 17:02 -4.28506 53.13899 30903 ft 499 kts 90°
2026-05-05 17:03 -4.28578 53.20781 30903 ft 498 kts 90°
2026-05-05 17:03 -4.28650 53.27742 30903 ft 497 kts 90°
2026-05-05 17:04 -4.28720 53.34634 30903 ft 499 kts 90°
2026-05-05 17:04 -4.28791 53.41569 30904 ft 500 kts 90°
2026-05-05 17:05 -4.28861 53.48524 30903 ft 498 kts 90°
2026-05-05 17:05 -4.28930 53.55462 30903 ft 498 kts 90°
2026-05-05 17:06 -4.28999 53.62410 30903 ft 499 kts 90°
2026-05-05 17:06 -4.29064 53.69339 30902 ft 498 kts 90°
2026-05-05 17:07 -4.29126 53.76299 30903 ft 498 kts 90°
2026-05-05 17:07 -4.29190 53.83187 30903 ft 498 kts 90°
2026-05-05 17:08 -4.29255 53.90142 30903 ft 499 kts 90°
2026-05-05 17:08 -4.29321 53.97081 30903 ft 499 kts 90°
2026-05-05 17:09 -4.29386 54.04005 30903 ft 498 kts 90°
2026-05-05 17:09 -4.29450 54.10925 30898 ft 499 kts 90°
2026-05-05 17:10 -4.29513 54.17848 30889 ft 498 kts 90°
2026-05-05 17:10 -4.29576 54.24806 30889 ft 498 kts 90°
2026-05-05 17:11 -4.29638 54.31717 30888 ft 498 kts 90°
2026-05-05 17:11 -4.29700 54.38685 30887 ft 498 kts 90°
2026-05-05 17:12 -4.29761 54.45613 30888 ft 500 kts 90°
2026-05-05 17:12 -4.29822 54.52592 30885 ft 500 kts 90°
2026-05-05 17:13 -4.29882 54.59516 30883 ft 497 kts 90°
2026-05-05 17:13 -4.29940 54.66440 30884 ft 498 kts 90°
2026-05-05 17:14 -4.29993 54.73357 30883 ft 499 kts 90°
2026-05-05 17:14 -4.30047 54.80292 30882 ft 498 kts 90°
2026-05-05 17:15 -4.30103 54.87228 30882 ft 499 kts 90°
2026-05-05 17:15 -4.30160 54.94205 30891 ft 500 kts 90°
2026-05-05 17:16 -4.30216 55.01129 30899 ft 497 kts 90°
2026-05-05 17:16 -4.30271 55.08044 30905 ft 497 kts 90°
2026-05-05 17:17 -4.30326 55.14982 30901 ft 499 kts 90°
2026-05-05 17:17 -4.30380 55.21931 30903 ft 498 kts 90°
2026-05-05 17:18 -4.30434 55.28857 30904 ft 499 kts 90°
2026-05-05 17:18 -4.30487 55.35841 30902 ft 500 kts 90°
2026-05-05 17:19 -4.30539 55.42764 30903 ft 498 kts 90°
2026-05-05 17:19 -4.30591 55.49703 30902 ft 497 kts 90°
2026-05-05 17:20 -4.30641 55.56601 30902 ft 499 kts 90°
2026-05-05 17:20 -4.30692 55.63537 30903 ft 499 kts 90°
2026-05-05 17:21 -4.30416 55.70483 30901 ft 498 kts 79°
2026-05-05 17:22 -4.26768 55.80245 30902 ft 501 kts 66°
2026-05-05 17:22 -4.23916 55.86568 30902 ft 498 kts 66°
2026-05-05 17:23 -4.21116 55.92925 30902 ft 498 kts 67°
2026-05-05 17:23 -4.18349 55.99299 30899 ft 500 kts 67°
2026-05-05 17:24 -4.15592 56.05673 30898 ft 500 kts 67°
2026-05-05 17:24 -4.12829 56.12062 30902 ft 500 kts 68°
2026-05-05 17:25 -4.10073 56.18433 30904 ft 499 kts 67°
2026-05-05 17:25 -4.07306 56.24823 30904 ft 499 kts 67°
2026-05-05 17:26 -4.04551 56.31186 30902 ft 499 kts 67°
2026-05-05 17:26 -4.01794 56.37553 30904 ft 499 kts 67°
2026-05-05 17:27 -3.99034 56.43922 30903 ft 500 kts 67°
2026-05-05 17:27 -3.96255 56.50336 30904 ft 500 kts 67°
2026-05-05 17:28 -3.93487 56.56723 30903 ft 500 kts 67°
2026-05-05 17:28 -3.90723 56.63098 30904 ft 499 kts 67°
2026-05-05 17:29 -3.87959 56.69468 30905 ft 499 kts 67°
2026-05-05 17:29 -3.85180 56.75864 30903 ft 500 kts 67°
2026-05-05 17:30 -3.82411 56.82242 30905 ft 500 kts 67°
2026-05-05 17:30 -3.79643 56.88622 30902 ft 500 kts 67°
2026-05-05 17:31 -3.76869 56.95012 30894 ft 500 kts 67°
2026-05-05 17:31 -3.74106 57.01376 30890 ft 500 kts 67°
2026-05-05 17:32 -3.71342 57.07742 30896 ft 500 kts 67°
2026-05-05 17:32 -3.68574 57.14114 30902 ft 500 kts 67°
2026-05-05 17:33 -3.65797 57.20506 30905 ft 500 kts 67°
2026-05-05 17:33 -3.63032 57.26867 30905 ft 500 kts 67°
2026-05-05 17:34 -3.60266 57.33231 30906 ft 501 kts 67°
2026-05-05 17:34 -3.57484 57.39629 30902 ft 500 kts 67°
2026-05-05 17:35 -3.54704 57.46024 30903 ft 500 kts 67°
2026-05-05 17:35 -3.51935 57.52389 30904 ft 501 kts 67°
2026-05-05 17:36 -3.49156 57.58776 30903 ft 501 kts 67°
2026-05-05 17:36 -3.46386 57.65143 30904 ft 500 kts 67°
2026-05-05 17:37 -3.43589 57.71557 30905 ft 501 kts 67°
2026-05-05 17:37 -3.40822 57.77902 30904 ft 500 kts 67°
2026-05-05 17:38 -3.38032 57.84308 30906 ft 500 kts 67°
2026-05-05 17:38 -3.35262 57.90669 30907 ft 500 kts 67°
2026-05-05 17:39 -3.32477 57.97062 30905 ft 501 kts 67°
2026-05-05 17:39 -3.29695 58.03447 30902 ft 501 kts 67°
2026-05-05 17:40 -3.26922 58.09811 30902 ft 501 kts 67°
2026-05-05 17:40 -3.24148 58.16174 30902 ft 499 kts 67°
2026-05-05 17:41 -3.21366 58.22556 30902 ft 499 kts 67°
2026-05-05 17:41 -3.18586 58.28931 30900 ft 500 kts 67°
2026-05-05 17:42 -3.15825 58.35263 30903 ft 499 kts 67°
2026-05-05 17:42 -3.13055 58.41615 30905 ft 500 kts 67°
2026-05-05 17:43 -3.10278 58.47979 30901 ft 499 kts 67°
2026-05-05 17:43 -3.07518 58.54303 30903 ft 497 kts 67°
2026-05-05 17:44 -3.04735 58.60680 30903 ft 499 kts 67°
2026-05-05 17:44 -3.01972 58.67009 30900 ft 499 kts 66°
2026-05-05 17:45 -2.99193 58.73357 30901 ft 498 kts 66°
2026-05-05 17:45 -2.96404 58.79739 30902 ft 499 kts 67°
2026-05-05 17:46 -2.93634 58.86087 30899 ft 498 kts 67°
2026-05-05 17:46 -2.90865 58.92435 30902 ft 498 kts 67°
2026-05-05 17:47 -2.88087 58.98803 30903 ft 499 kts 67°
2026-05-05 17:47 -2.85325 59.05137 31067 ft 496 kts 67°
2026-05-05 17:48 -2.82581 59.11424 31257 ft 495 kts 67°
2026-05-05 17:48 -2.79828 59.17730 31448 ft 495 kts 67°
2026-05-05 17:49 -2.77076 59.24030 31637 ft 495 kts 67°
2026-05-05 17:49 -2.74331 59.30313 31827 ft 493 kts 67°
2026-05-05 17:50 -2.71577 59.36617 32018 ft 492 kts 67°
2026-05-05 17:50 -2.68843 59.42873 32212 ft 491 kts 67°
2026-05-05 17:51 -2.66118 59.49109 32403 ft 490 kts 67°
2026-05-05 17:51 -2.63390 59.55350 32593 ft 488 kts 67°
2026-05-05 17:52 -2.60663 59.61589 32801 ft 488 kts 67°
2026-05-05 17:52 -2.57947 59.67797 32923 ft 490 kts 67°
2026-05-05 17:53 -2.55222 59.74018 32925 ft 489 kts 67°
2026-05-05 17:53 -2.52491 59.80254 32924 ft 486 kts 67°
2026-05-05 17:54 -2.49781 59.86449 32925 ft 486 kts 67°
2026-05-05 17:54 -2.47072 59.92641 32921 ft 488 kts 67°
2026-05-05 17:55 -2.44339 59.98888 32913 ft 488 kts 67°
2026-05-05 17:55 -2.41615 60.05108 32903 ft 488 kts 67°
2026-05-05 17:56 -2.38902 60.11301 32903 ft 487 kts 67°
2026-05-05 17:56 -2.36181 60.17513 32905 ft 485 kts 67°
2026-05-05 17:57 -2.33485 60.23664 32907 ft 486 kts 67°
2026-05-05 17:57 -2.30752 60.29900 32905 ft 486 kts 67°
2026-05-05 17:58 -2.28039 60.36092 32908 ft 485 kts 67°
2026-05-05 17:58 -2.25335 60.42260 32905 ft 486 kts 67°
2026-05-05 17:59 -2.22605 60.48487 32901 ft 486 kts 67°
2026-05-05 17:59 -2.19897 60.54662 32904 ft 483 kts 67°
2026-05-05 18:00 -2.17197 60.60820 32901 ft 483 kts 67°
2026-05-05 18:00 -2.14493 60.66985 32906 ft 484 kts 67°
2026-05-05 18:01 -2.11799 60.73116 32903 ft 484 kts 67°
2026-05-05 18:01 -2.09088 60.79289 32905 ft 485 kts 67°
2026-05-05 18:02 -2.06373 60.85476 32902 ft 484 kts 67°
2026-05-05 18:02 -2.03691 60.91589 32905 ft 482 kts 67°
2026-05-05 18:03 -2.00984 60.97758 32920 ft 484 kts 67°
2026-05-05 18:03 -1.98273 61.03935 32924 ft 486 kts 67°
2026-05-05 18:04 -1.95558 61.10119 32924 ft 485 kts 67°
2026-05-05 18:04 -1.92830 61.16332 32927 ft 484 kts 67°
2026-05-05 18:05 -1.90134 61.22473 32924 ft 485 kts 68°
2026-05-05 18:05 -1.87406 61.28692 32924 ft 486 kts 68°
2026-05-05 18:06 -1.84685 61.34891 32926 ft 487 kts 68°
2026-05-05 18:06 -1.81977 61.41057 32924 ft 486 kts 68°
2026-05-05 18:07 -1.79249 61.47267 32912 ft 485 kts 68°
2026-05-05 18:07 -1.76535 61.53445 32905 ft 485 kts 68°
2026-05-05 18:08 -1.73812 61.59643 32905 ft 485 kts 68°
2026-05-05 18:08 -1.71102 61.65812 32905 ft 485 kts 68°
2026-05-05 18:09 -1.68383 61.71992 32904 ft 487 kts 68°
2026-05-05 18:09 -1.65644 61.78218 32904 ft 490 kts 68°
2026-05-05 18:10 -1.62908 61.84440 32904 ft 487 kts 68°
2026-05-05 18:10 -1.60182 61.90641 32900 ft 486 kts 68°
2026-05-05 18:11 -1.57464 61.96825 32904 ft 488 kts 68°
2026-05-05 18:11 -1.54723 62.03059 32903 ft 488 kts 68°
2026-05-05 18:12 -1.51990 62.09274 32903 ft 487 kts 68°
2026-05-05 18:12 -1.49263 62.15476 32905 ft 488 kts 68°
2026-05-05 18:13 -1.46516 62.21723 32901 ft 489 kts 68°
2026-05-05 18:13 -1.43802 62.27892 32901 ft 486 kts 68°
2026-05-05 18:14 -1.41077 62.34086 32903 ft 487 kts 68°
2026-05-05 18:14 -1.38349 62.40289 32903 ft 488 kts 68°
2026-05-05 18:15 -1.35627 62.46477 32905 ft 487 kts 68°
2026-05-05 18:15 -1.32886 62.52705 32907 ft 487 kts 68°
2026-05-05 18:16 -1.30160 62.58900 32906 ft 486 kts 68°
2026-05-05 18:16 -1.27443 62.65074 32908 ft 485 kts 68°
2026-05-05 18:17 -1.24721 62.71255 32916 ft 486 kts 68°
2026-05-05 18:17 -1.21996 62.77441 32919 ft 487 kts 68°
2026-05-05 18:18 -1.19279 62.83612 32920 ft 484 kts 68°
2026-05-05 18:18 -1.16559 62.89791 32923 ft 484 kts 68°
2026-05-05 18:19 -1.13840 62.95968 32922 ft 484 kts 68°
2026-05-05 18:19 -1.11142 63.02098 32924 ft 484 kts 68°
2026-05-05 18:20 -1.08425 63.08269 32925 ft 484 kts 68°
2026-05-05 18:20 -1.05723 63.14406 32925 ft 483 kts 68°
2026-05-05 18:21 -1.03025 63.20532 32926 ft 482 kts 68°
2026-05-05 18:21 -1.00317 63.26683 32922 ft 482 kts 68°
2026-05-05 18:22 -0.97610 63.32829 32916 ft 481 kts 68°
2026-05-05 18:22 -0.94892 63.39001 32915 ft 482 kts 68°
2026-05-05 18:23 -0.92198 63.45118 32906 ft 482 kts 68°
2026-05-05 18:23 -0.89505 63.51232 32908 ft 482 kts 68°
2026-05-05 18:24 -0.86820 63.57332 32900 ft 481 kts 68°
2026-05-05 18:24 -0.84118 63.63469 32905 ft 480 kts 68°
2026-05-05 18:25 -0.81437 63.69554 32905 ft 481 kts 67°
2026-05-05 18:25 -0.78731 63.75693 32904 ft 481 kts 67°
2026-05-05 18:26 -0.76036 63.81809 32905 ft 481 kts 67°
2026-05-05 18:26 -0.73360 63.87882 32904 ft 480 kts 67°
2026-05-05 18:27 -0.70666 63.93997 32904 ft 479 kts 67°
2026-05-05 18:27 -0.67970 64.00114 32905 ft 479 kts 67°
2026-05-05 18:28 -0.63959 64.09218 32902 ft 480 kts 67°
2026-05-05 18:28 -0.61274 64.15311 32907 ft 481 kts 67°
2026-05-05 18:29 -0.58588 64.21403 32904 ft 481 kts 67°
2026-05-05 18:29 -0.55899 64.27506 32906 ft 481 kts 67°
2026-05-05 18:30 -0.53197 64.33636 32906 ft 483 kts 67°
2026-05-05 18:30 -0.50488 64.39783 32907 ft 483 kts 67°
2026-05-05 18:31 -0.47787 64.45912 32906 ft 482 kts 67°
2026-05-05 18:31 -0.45091 64.52029 32907 ft 483 kts 67°
2026-05-05 18:32 -0.42387 64.58163 32902 ft 483 kts 67°
2026-05-05 18:32 -0.39676 64.64314 32906 ft 484 kts 67°
2026-05-05 18:33 -0.36968 64.70454 32905 ft 486 kts 67°
2026-05-05 18:33 -0.34292 64.76521 32905 ft 485 kts 67°
2026-05-05 18:34 -0.31595 64.82637 32905 ft 483 kts 67°
2026-05-05 18:34 -0.28873 64.88813 32905 ft 486 kts 67°
2026-05-05 18:35 -0.26083 64.95144 32904 ft 488 kts 66°
2026-05-05 18:35 -0.23333 65.01382 32904 ft 488 kts 67°
2026-05-05 18:36 -0.20601 65.07577 32903 ft 489 kts 67°
2026-05-05 18:36 -0.17850 65.13816 32894 ft 489 kts 67°
2026-05-05 18:37 -0.15131 65.19984 32884 ft 487 kts 67°
2026-05-05 18:37 -0.12389 65.26204 32884 ft 487 kts 67°
2026-05-05 18:38 -0.09666 65.32381 32884 ft 487 kts 67°
2026-05-05 18:38 -0.06933 65.38580 32884 ft 487 kts 67°
2026-05-05 18:39 -0.04206 65.44765 32886 ft 486 kts 67°
2026-05-05 18:39 -0.01484 65.50939 32889 ft 487 kts 67°